Showing default

EUTE 36B (EUTE W7), 36101

Orbit data source: Space-Track

EUTE 36B (EUTE W7), 36101 is a payload satellite owned by EutelsatSA (FR) in GEO that was launched on Tue, 24 Nov 2009 UTC via a PROTON-M/BRIZ-M launch vehicle from the Tyuratam Missile And Space Complex (TTMTR). Payload-class satellites include a variety of spacecraft equipped with specific instruments for various scientific and technological missions. These include communications satellites like Starlink; space stations such as the ISS; scientific satellites like the Hubble; Earth observation satellites from companies like Planet Labs, Umbra, and HawkEye 360; GPS; miniature CubeSats for education and research; and military/defense satellites.

Not visible in the next 10 days
Identifier
36101, 2009-065A
Orbit
GEO
Country
Flag of UnknownUnknown / EUTE
Related business
Manufacturer
Thales Alenia
Mission
Operational Commercial Communications
Bus & Motor
SPACEBUS 4000C4, S400
Mass
5,627 kg wet, ~2,800 kg dry
Launch date (UTC)
2009-11-24 (16 years ago)
Launch vehicle
PROTON-M/BRIZ-M
Launch site
Tyuratam Missile And Space Complex (TTMTR)
Object type
Payload
Rocket body
Debris
Shape & HBR
Box + 2 Pan + 1 Dish, 17.0 m
Radar Cross Section
44.769 m², Large (>1 m²)

Expand to show TLE details & history
Last TLE update: 10 hours ago

TLE from 10 hours ago
0 EUTE 36B (EUTE W7)
1 36101U 09065A   26037.20794157  .00000113  00000-0  00000-0 0  9999
2 36101   0.1605  74.4897 0005792 246.1927 300.9753  1.00272606 59395
Epoch: 2026-02-06T04:59Z
TLE epoch observation values (Epoch: 2026-02-06T04:59:26.151Z)
Latitude
-0.01355°
Longitude
50.42451°
Altitude
35,773.218 km
Speed
3.076 km/s
True Right ascension
17h 26m 31s
True Declination
0° 00' 49"
Sunlit
Object was in daylight at epoch
Visualization orbit readout
Latitude
Unknown
Longitude
Unknown
Altitude
Unknown
Speed
Unknown
Apparent Right ascension
Unknown
Apparent Declination
Unknown
Sunlit
N/A
Visualization observer readout
Local Sidereal Time
17:28:50
Azimuth
Unknown
Elevation
Unknown
Doppler factor
Unknown
Orbital elements
Apogee altitude
35,811.857 km
Perigee altitude
35,763.013 km
Semi-major axis
42,165.572 km
Eccentricity
0.00058
Inclination
0.1605°
RAAN
74.4897°
Arg. of periapsis
246.1927°
True anomaly
300.91837°
Mean anomaly
300.9753°
Eccentric anomaly
300.94684°
Mean motion
0.25067 °/min
Orbital period
1,436.14 mins
BSTAR
0
Loading maneuver chart data...
Computing Atmospheric mass density...
Loading historical data...
Loading historical data...
Loading historical data...
Loading historical data...
Loading historical data...
Loading historical data...
Loading historical data...
Other satellites on launch #65 in the year 2009 (2009-11-24 UTC)

Documentation

Showing up to 5 results
|